* Astronomy

Members Login
Username 
 
Password 
    Remember Me  
Post Info TOPIC: SL-6 rocket body re-entry


L

Posts: 131433
Date:
RE: SL-6 rocket body re-entry
Permalink  
 


Update:
The SL-6 rocket body re-entered the Earths atmosphere on the 4th January, 2012 @ 16:20 GMT  ± 1 minute.

Inclination: 62.84°
Revolution Number: 23796
Predicted Location:  56°N, 161°E



__________________


L

Posts: 131433
Date:
Permalink  
 

Update:
The SL-6 rocket body is predicted to re-enter the Earths atmosphere on the 4th January, 2012 @ 16:24 GMT  ± 2 hours.

SL-6 RB
1 11555U 79058D   12004.57833333  .99999999  11930-4  26786-2 0  3702
2 11555 062.8423 101.0441 0353307 046.0561 149.4457 15.78021894237942

Period:       92.95 minutes
Inclination: 62.84°
Apogee:     741 km
Perigee:     97 km
Revolution Number: 23796
Predicted Location:  58.1°N, 167.4°E



__________________


L

Posts: 131433
Date:
Permalink  
 

Update:
The SL-6 rocket body is predicted to re-enter the Earths atmosphere on the 4th January, 2012 @ 16:14 GMT  ± 8 hours.

SL-6 RB
1 11555U 79058D   12004.07991256  .98604009  46347-4  22494-2 0  3634
2 11555 062.8566 102.7497 1098279 042.4457 017.0119 13.98553065237875

Period:       112.48 minutes
Inclination: 62.85°
Apogee:     2580 km
Perigee:     101 km
Revolution Number: 23797
Predicted Location:  20.1°N, 125°E



__________________


L

Posts: 131433
Date:
Permalink  
 

Update:
The SL-6 rocket body is predicted to re-enter the Earths atmosphere on the 4th January, 2012 @ 13:02 GMT  ± 15 hours.

SL-6 RB
1 11555U 79058D   12003.80971015  .83801796  39722-4  24707-2 0  3628
2 11555 062.8465 103.4953 1322480 042.6193 122.4322 13.45014050237832

Period:       112.48 minutes
Inclination: 62.85°
Apogee:     2580 km
Perigee:     101 km
Revolution Number: 23795
Predicted Location:  50.3°N, 200.7°E



__________________


L

Posts: 131433
Date:
Permalink  
 

Update:
The SL-6 rocket body is predicted to re-enter the Earths atmosphere on the 4th January, 2012 @ 01:49 GMT  ± 24 hours.

SL-6 RB
1 11555U 79058D   12002.59350806  .60724855  27078-4  22042-2 0  3482
2 11555 062.9036 106.4010 2091964 041.7264 037.3649 11.71010173237682

Period:       154.19 minutes
Inclination: 62.90°
Apogee:     6183 km
Perigee:     111 km
Revolution Number: 23790
Predicted Location:  41.1°N, 359.2°E



__________________


L

Posts: 131433
Date:
Permalink  
 

Update:
The SL-6 rocket body is predicted to re-enter the Earths atmosphere on the 3rd January, 2012 @ 13:59 GMT  ± 48 hours.

SL-6 RB
1 11555U 79058D   12001.51241483  .57979536  22755-4  34130-2 0  3373
2 11555 062.9455 108.4803 2672374 041.5126 055.5348 10.43033990237569

Period:       154.19 minutes
Inclination: 62.95°
Apogee:     6183 km
Perigee:     111 km
Revolution Number: 23782
Predicted Location:  40.4°N, 177.6°E



__________________


L

Posts: 131433
Date:
Permalink  
 

A SL-6 rocket body that was launched on the 27th June, 1979, from the Plesetsk cosmodrome, for the KOSMOS 1109 satellite mission, is predicted to re-enter the Earths atmosphere on the 2nd January, 2012 @ 22:49 GMT  ± 48 hours.

SL-6 RB
1 11555U 79058D   11364.60034207  .40531815  14982-4  32387-2 0  3188
2 11555 062.9927 111.1975 3600187 041.3089 046.0093 08.51632881237386

Period:       185.15 minutes
Inclination: 63.00°
Apogee:     8656 km
Perigee:     109 km
Revolution Number: 23775
Predicted Location:  62.8°N, 110.3°E



__________________
Page 1 of 1  sorted by
 
Quick Reply

Please log in to post quick replies.



Create your own FREE Forum
Report Abuse
Powered by ActiveBoard